Location: Krakow
(50.0830°N, 19.9170°E)
Time: 19:22:40
(UTC+01:00)

SR - Pass Details

Date: 09 February 2023
Orbit: 582 x 867 km, 66.7° (Epoch: 20 March)

Event Time Altitude Azimuth Distance (km) Brightness Sun altitude
Rises 12:17:49 0° 191° (S) 3,202 ? 25.0°
Reaches altitude 10° 12:20:25 10° 183° (S) 2,232 ? 25.0°
Maximum altitude 12:25:03 37° 117° (ESE) 1,072 ? 24.9°
Drops below altitude 10° 12:29:23 10° 50° (NE) 2,078 ? 24.8°
Sets 12:31:43 0° 43° (NE) 2,951 ? 24.7°
